DW8935 Weather Reports


Display with metric or nautical units.
time (UTC)temp
F
wind
direction
speed
MPH
gust
MPH
rain 1hr
in
rain 24hr
in
rain mn
in
humidity
%
barometer
mb
20260508043038 61 263 6.0 13.0 0.00 0.00 0.00 67 1023.1
20260508041603 59 229 6.0 16.0 0.00 0.00 0.00 70 1023.1
20260508040043 60 268 9.0 17.0 0.00 0.00 0.00 72 1023.2
20260508034537 60 234 5.0 14.0 0.00 0.00 0.00 72 1023.0
20260508033035 61 254 6.0 14.0 0.00 0.00 0.00 71 1022.9
20260508031537 61 214 5.0 15.0 0.00 0.00 0.00 71 1022.8
20260508030036 60 233 7.0 14.0 0.00 0.00 0.00 73 1022.7
20260508024534 60 248 5.0 16.0 0.00 0.00 0.00 73 1023.1
20260508023034 60 233 5.0 19.0 0.00 0.00 0.00 72 1023.0
20260508021534 60 207 6.0 15.0 0.00 0.00 0.00 74 1023.0
20260508020039 60 227 6.0 12.0 0.00 0.00 0.00 75 1023.2
20260508014528 60 244 6.0 18.0 0.00 0.00 0.00 76 1023.4
20260508013025 59 222 5.0 10.0 0.00 0.00 0.00 82 1023.2
20260508011524 58 227 0.0 3.0 0.00 0.00 0.00 86 1023.3
20260508010022 59 229 0.0 1.0 0.00 0.00 0.00 86 1023.2
20260508004521 58 275 0.0 1.0 0.00 0.00 0.00 87 1023.0
20260508003019 59 267 0.0 0.0 0.00 0.00 0.00 87 1022.8
20260508001516 58 244 0.0 0.0 0.00 0.00 0.00 90 1022.6
20260508000015 57 289 0.0 0.0 0.00 0.00 0.00 91 1022.6
20260507234514 57 268 0.0 0.0 0.00 0.00 0.00 92 1022.4
20260507233028 56 271 0.0 0.0 0.00 0.00 0.00 92 1022.6
20260507231511 56 300 0.0 0.0 0.00 0.00 0.00 92 1022.5
20260507230010 56 262 0.0 0.0 0.00 0.00 0.00 92 1022.4
20260507224509 56 273 0.0 0.0 0.00 0.00 0.00 93 1022.2
20260507223007 55 280 0.0 0.0 0.00 0.00 0.00 93 1022.0
20260507221505 54 232 0.0 0.0 0.00 0.00 0.00 92 1021.9
20260507220003 54 232 0.0 0.0 0.00 0.00 0.00 93 1021.8
20260507214500 54 249 0.0 0.0 0.00 0.00 0.00 93 1021.5
20260507213106 54 243 0.0 0.0 0.00 0.00 0.00 93 1021.2
20260507211559 55 220 0.0 0.0 0.00 0.00 0.00 93 1021.2
20260507210104 55 229 0.0 0.0 0.00 0.00 0.00 93 1020.9
20260507204558 55 269 0.0 0.0 0.00 0.00 0.00 93 1020.8
20260507203058 55 221 0.0 0.0 0.00 0.00 0.00 93 1020.5
20260507201557 55 246 0.0 0.0 0.00 0.00 0.00 93 1020.7
20260507200057 55 245 0.0 0.0 0.00 0.00 0.00 93 1020.9
20260507194618 55 225 0.0 1.0 0.00 0.00 0.00 92 1020.6
20260507193055 55 236 0.0 1.0 0.00 0.00 0.00 92 1020.3
20260507191553 55 248 0.0 0.0 0.00 0.00 0.00 92 1020.3
20260507190054 55 257 0.0 0.0 0.00 0.00 0.00 92 1020.1
20260507184552 55 238 0.0 1.0 0.00 0.00 0.00 92 1020.0
20260507183051 55 304 0.0 1.0 0.00 0.00 0.00 91 1019.8
20260507181556 55 257 0.0 0.0 0.00 0.00 0.00 91 1019.7
20260507180051 55 277 0.0 0.0 0.00 0.00 0.00 90 1019.6
20260507174557 55 275 0.0 0.0 0.00 0.00 0.00 90 1019.5
20260507173119 55 286 0.0 0.0 0.00 0.00 0.00 89 1019.5
20260507171554 55 250 0.0 0.0 0.00 0.00 0.00 89 1019.2
20260507170108 55 261 0.0 0.0 0.00 0.00 0.00 89 1019.2
20260507164555 55 257 0.0 0.0 0.00 0.00 0.00 89 1019.3
20260507163048 55 296 0.0 0.0 0.00 0.00 0.00 89 1019.4
20260507161601 55 265 0.0 0.0 0.00 0.00 0.00 89 1019.5
20260507160045 55 267 0.0 0.0 0.00 0.00 0.00 89 1019.5
20260507154544 55 275 0.0 0.0 0.00 0.00 0.00 90 1019.5
20260507153045 54 255 0.0 0.0 0.00 0.00 0.00 90 1019.5
20260507151541 54 296 0.0 0.0 0.00 0.00 0.00 90 1019.6
20260507150042 54 294 0.0 0.0 0.00 0.00 0.00 90 1019.8
20260507144544 54 301 0.0 0.0 0.00 0.00 0.00 90 1020.0
20260507143040 54 319 0.0 0.0 0.00 0.00 0.00 90 1020.0
20260507141535 53 275 0.0 0.0 0.00 0.00 0.00 91 1020.1
20260507140037 53 261 0.0 0.0 0.00 0.00 0.00 91 1020.2
20260507134534 53 297 0.0 0.0 0.00 0.00 0.00 91 1020.4
20260507133034 52 280 0.0 1.0 0.00 0.00 0.00 90 1020.6
20260507131536 52 261 0.0 1.0 0.00 0.00 0.00 90 1020.7
20260507130032 52 304 0.0 1.0 0.00 0.00 0.00 89 1021.0
20260507124532 52 267 0.0 2.0 0.00 0.00 0.00 89 1021.2
20260507123039 52 292 0.0 2.0 0.00 0.00 0.00 88 1021.5
20260507121532 52 251 2.0 5.0 0.00 0.00 0.00 88 1021.6
20260507120041 52 270 3.0 16.0 0.00 0.00 0.00 89 1021.6
20260507114530 52 294 5.0 13.0 0.00 0.00 0.00 90 1021.7
20260507113040 52 272 3.0 10.0 0.00 0.00 0.00 90 1021.6
20260507111531 52 269 2.0 9.0 0.00 0.00 0.00 89 1021.6
20260507110031 52 311 1.0 10.0 0.00 0.00 0.00 88 1021.5
20260507104531 52 284 2.0 7.0 0.00 0.00 0.00 87 1021.6
20260507103032 52 255 3.0 9.0 0.00 0.00 0.00 86 1021.9
20260507101529 52 247 2.0 13.0 0.00 0.00 0.00 85 1022.1
20260507100036 52 244 3.0 12.0 0.00 0.00 0.00 83 1022.2
20260507094528 52 249 4.0 12.0 0.00 0.00 0.00 83 1022.2
20260507093030 52 257 3.0 7.0 0.00 0.00 0.00 83 1021.8
20260507091528 51 267 2.0 6.0 0.00 0.00 0.00 85 1022.1
20260507090028 51 281 2.0 6.0 0.00 0.00 0.00 87 1022.0
20260507084528 50 260 2.0 5.0 0.00 0.00 0.00 88 1021.9
20260507083027 50 286 0.0 2.0 0.00 0.00 0.00 88 1021.8
20260507081533 51 261 0.0 2.0 0.00 0.00 0.00 87 1022.0
20260507080027 51 232 0.0 4.0 0.00 0.00 0.00 86 1021.7
20260507074532 51 199 1.0 5.0 0.00 0.00 0.00 85 1021.8
20260507073026 51 240 1.0 4.0 0.00 0.00 0.00 85 1021.7
20260507071532 51 273 1.0 8.0 0.00 0.00 0.00 84 1021.7
20260507070026 51 286 2.0 4.0 0.00 0.00 0.00 84 1021.5
20260507064527 51 258 1.0 4.0 0.00 0.00 0.00 83 1021.6
20260507063025 51 246 2.0 8.0 0.00 0.00 0.00 82 1021.7
20260507061532 51 265 0.0 5.0 0.00 0.00 0.00 82 1021.8
20260507060024 52 242 1.0 4.0 0.00 0.00 0.00 80 1021.9
20260507054524 53 242 2.0 6.0 0.00 0.00 0.00 78 1022.0
20260507053031 53 183 1.0 6.0 0.00 0.00 0.00 77 1022.0
20260507051524 53 252 1.0 5.0 0.00 0.00 0.00 76 1022.0
20260507050024 53 200 1.0 6.0 0.00 0.00 0.00 77 1021.8
20260507044524 53 196 1.0 8.0 0.00 0.00 0.00 75 1021.9